QPF
0.00 0.00 0.00 0.00 0.00 0.00 0.00 0.00 0.00 0.00 0.00 0.00 0.00 0.00 0.00 0.00 0.00 0.00 0.00 0.01 0.02 0.02 0.02 0.02 0.01 0.02 0.02 0.04 0.05 0.05 0.04 0.03 0.02 0.02 0.01 0.02 0.02 0.02 0.01 0.01 0.01 0.01 0.02 0.02
0.01 0.00 0.00 0.00 0.00 0.00 0.00 0.00 0.00 0.00 0.00 0.00 0.00 0.00 0.00 0.00 0.01 0.00 0.00 0.01 0.01 0.02 0.02 0.02 0.02 0.02 0.02 0.03 0.04 0.05 0.03 0.02 0.02 0.02 0.01 0.01 0.01 0.01 0.01 0.01 0.00 0.01 0.01 0.02
0.00 0.00 0.00 0.00 0.00 0.00 0.00 0.00 0.00 0.00 0.00 0.00 0.00 0.00 0.01 0.01 0.01 0.01 0.01 0.00 0.01 0.02 0.02 0.02 0.02 0.02 0.02 0.02 0.03 0.05 0.03 0.01 0.01 0.02 0.02 0.02 0.02 0.02 0.02 0.01 0.01 0.01 0.01 0.01
0.00 0.01 0.01 0.00 0.01 0.01 0.01 0.00 0.00 0.00 0.00 0.00 0.00 0.01 0.01 0.01 0.01 0.01 0.01 0.01 0.01 0.01 0.02 0.02 0.02 0.03 0.04 0.04 0.03 0.03 0.02 0.01 0.01 0.02 0.01 0.02 0.02 0.02 0.02 0.02 0.02 0.01 0.01 0.02
0.01 0.01 0.01 0.01 0.01 0.01 0.01 0.01 0.00 0.00 0.00 0.01 0.00 0.01 0.01 0.01 0.01 0.01 0.01 0.01 0.01 0.01 0.01 0.02 0.02 0.03 0.03 0.04 0.03 0.02 0.01 0.01 0.01 0.01 0.01 0.01 0.01 0.01 0.01 0.02 0.01 0.01 0.01 0.01
0.01 0.02 0.02 0.01 0.01 0.01 0.01 0.02 0.01 0.01 0.01 0.01 0.01 0.01 0.01 0.01 0.01 0.01 0.01 0.02 0.02 0.01 0.02 0.02 0.02 0.03 0.03 0.03 0.02 0.01 0.01 0.01 0.01 0.01 0.01 0.01 0.01 0.01 0.01 0.01 0.01 0.01 0.01 0.02
0.02 0.03 0.02 0.01 0.01 0.01 0.03 0.02 0.01 0.01 0.01 0.01 0.01 0.01 0.01 0.01 0.01 0.00 0.01 0.01 0.01 0.02 0.02 0.03 0.03 0.04 0.03 0.03 0.02 0.02 0.02 0.01 0.01 0.01 0.01 0.01 0.01 0.01 0.01 0.01 0.01 0.01 0.01 0.02
0.04 0.05 0.03 0.01 0.01 0.03 0.03 0.02 0.01 0.01 0.01 0.01 0.01 0.01 0.01 0.01 0.01 0.01 0.01 0.01 0.02 0.02 0.02 0.02 0.04 0.04 0.04 0.03 0.02 0.02 0.03 0.02 0.02 0.02 0.01 0.01 0.01 0.01 0.01 0.01 0.01 0.01 0.01 0.01
0.04 0.03 0.02 0.02 0.04 0.05 0.04 0.01 0.01 0.01 0.01 0.01 0.00 0.00 0.00 0.01 0.02 0.02 0.02 0.02 0.03 0.04 0.03 0.03 0.05 0.05 0.03 0.02 0.02 0.03 0.04 0.04 0.04 0.04 0.03 0.02 0.01 0.02 0.02 0.01 0.01 0.01 0.01 0.02
0.03 0.03 0.02 0.05 0.08 0.07 0.05 0.02 0.02 0.01 0.01 0.01 0.01 0.01 0.01 0.01 0.03 0.02 0.03 0.03 0.03 0.04 0.05 0.05 0.05 0.04 0.03 0.03 0.02 0.02 0.03 0.04 0.05 0.06 0.05 0.03 0.02 0.02 0.02 0.02 0.03 0.03 0.03 0.02
0.04 0.04 0.04 0.05 0.07 0.07 0.04 0.02 0.02 0.01 0.01 0.01 0.02 0.02 0.02 0.02 0.02 0.02 0.03 0.04 0.05 0.06 0.06 0.05 0.05 0.04 0.03 0.03 0.02 0.02 0.02 0.03 0.04 0.05 0.05 0.04 0.02 0.02 0.03 0.03 0.05 0.04 0.03 0.03
0.07 0.07 0.08 0.05 0.02 0.02 0.02 0.01 0.01 0.02 0.02 0.02 0.03 0.02 0.02 0.02 0.02 0.02 0.03 0.05 0.07 0.07 0.06 0.04 0.04 0.03 0.02 0.02 0.02 0.01 0.01 0.02 0.03 0.04 0.05 0.05 0.04 0.03 0.03 0.04 0.04 0.03 0.03 0.03
0.07 0.07 0.06 0.03 0.01 0.01 0.01 0.01 0.01 0.02 0.02 0.02 0.03 0.03 0.03 0.03 0.03 0.03 0.04 0.05 0.07 0.07 0.04 0.03 0.03 0.02 0.03 0.02 0.02 0.02 0.01 0.02 0.04 0.05 0.06 0.05 0.04 0.04 0.04 0.04 0.04 0.02 0.03 0.03
0.04 0.04 0.03 0.02 0.02 0.01 0.01 0.01 0.01 0.01 0.02 0.02 0.03 0.03 0.04 0.04 0.02 0.02 0.03 0.05 0.05 0.05 0.03 0.02 0.02 0.02 0.02 0.03 0.04 0.03 0.02 0.02 0.02 0.03 0.04 0.04 0.03 0.03 0.04 0.05 0.05 0.03 0.03 0.03
0.03 0.03 0.03 0.02 0.02 0.02 0.01 0.01 0.01 0.01 0.02 0.02 0.03 0.04 0.04 0.03 0.02 0.02 0.03 0.04 0.03 0.02 0.02 0.02 0.02 0.02 0.02 0.03 0.03 0.04 0.03 0.02 0.02 0.02 0.03 0.04 0.03 0.03 0.04 0.04 0.04 0.03 0.02 0.01
0.03 0.02 0.02 0.02 0.04 0.04 0.03 0.02 0.01 0.02 0.03 0.03 0.04 0.05 0.04 0.03 0.02 0.02 0.02 0.02 0.02 0.02 0.01 0.02 0.01 0.01 0.01 0.02 0.03 0.03 0.04 0.04 0.03 0.03 0.03 0.02 0.03 0.02 0.03 0.04 0.04 0.03 0.03 0.02
0.03 0.03 0.03 0.04 0.05 0.06 0.06 0.06 0.04 0.04 0.04 0.04 0.04 0.05 0.04 0.03 0.02 0.01 0.02 0.02 0.02 0.02 0.02 0.01 0.01 0.01 0.01 0.02 0.03 0.04 0.04 0.04 0.03 0.03 0.03 0.02 0.02 0.02 0.02 0.02 0.03 0.03 0.03 0.02
0.04 0.03 0.03 0.04 0.06 0.08 0.06 0.06 0.06 0.06 0.06 0.05 0.05 0.04 0.04 0.03 0.03 0.03 0.03 0.03 0.02 0.02 0.02 0.01 0.01 0.01 0.01 0.01 0.03 0.06 0.06 0.05 0.04 0.05 0.04 0.03 0.03 0.03 0.02 0.02 0.03 0.02 0.01 0.01
0.03 0.02 0.03 0.04 0.06 0.07 0.07 0.06 0.06 0.07 0.06 0.05 0.05 0.05 0.05 0.04 0.03 0.03 0.03 0.03 0.03 0.03 0.02 0.02 0.02 0.01 0.01 0.01 0.02 0.03 0.05 0.06 0.05 0.04 0.04 0.03 0.04 0.05 0.04 0.03 0.02 0.01 0.01 0.00
0.02 0.02 0.02 0.02 0.03 0.05 0.05 0.05 0.05 0.06 0.05 0.05 0.04 0.04 0.05 0.05 0.04 0.04 0.03 0.04 0.04 0.04 0.04 0.03 0.02 0.01 0.02 0.02 0.02 0.02 0.02 0.04 0.06 0.06 0.05 0.04 0.04 0.04 0.03 0.02 0.02 0.01 0.01 0.00
0.02 0.02 0.02 0.01 0.01 0.02 0.04 0.03 0.03 0.04 0.04 0.04 0.04 0.04 0.04 0.05 0.04 0.03 0.03 0.04 0.03 0.04 0.03 0.03 0.02 0.01 0.01 0.02 0.02 0.02 0.02 0.02 0.03 0.04 0.05 0.06 0.06 0.05 0.04 0.02 0.02 0.01 0.01 0.01
0.02 0.01 0.01 0.01 0.01 0.01 0.02 0.02 0.02 0.03 0.03 0.03 0.04 0.03 0.04 0.04 0.04 0.03 0.03 0.03 0.03 0.03 0.03 0.01 0.01 0.01 0.01 0.02 0.02 0.03 0.03 0.02 0.02 0.02 0.02 0.03 0.04 0.04 0.03 0.02 0.01 0.01 0.01 0.01
0.02 0.01 0.01 0.01 0.01 0.01 0.01 0.02 0.02 0.03 0.03 0.03 0.03 0.03 0.04 0.04 0.03 0.03 0.03 0.03 0.04 0.04 0.03 0.01 0.01 0.01 0.01 0.01 0.01 0.02 0.02 0.03 0.03 0.02 0.02 0.02 0.02 0.03 0.03 0.02 0.01 0.01 0.01 0.02
0.03 0.03 0.02 0.01 0.01 0.01 0.02 0.02 0.02 0.02 0.03 0.03 0.03 0.04 0.04 0.04 0.03 0.03 0.02 0.03 0.04 0.04 0.02 0.02 0.02 0.02 0.02 0.01 0.02 0.02 0.02 0.02 0.03 0.02 0.02 0.02 0.02 0.03 0.02 0.02 0.01 0.02 0.02 0.02
0.03 0.03 0.02 0.01 0.02 0.01 0.02 0.02 0.01 0.02 0.02 0.02 0.03 0.03 0.03 0.03 0.02 0.02 0.02 0.02 0.03 0.02 0.02 0.02 0.03 0.03 0.02 0.02 0.02 0.02 0.02 0.02 0.02 0.03 0.03 0.03 0.03 0.02 0.02 0.01 0.01 0.02 0.02 0.03
0.04 0.03 0.03 0.02 0.02 0.01 0.02 0.02 0.02 0.02 0.02 0.02 0.02 0.02 0.02 0.02 0.02 0.01 0.02 0.03 0.03 0.02 0.01 0.02 0.04 0.04 0.04 0.03 0.02 0.02 0.02 0.02 0.03 0.03 0.02 0.02 0.02 0.02 0.02 0.02 0.03 0.03 0.03 0.03
0.04 0.04 0.03 0.03 0.02 0.02 0.02 0.02 0.02 0.02 0.02 0.02 0.01 0.01 0.01 0.01 0.01 0.01 0.02 0.03 0.03 0.02 0.01 0.02 0.03 0.05 0.05 0.05 0.04 0.02 0.02 0.02 0.02 0.02 0.02 0.02 0.02 0.03 0.03 0.03 0.03 0.03 0.03 0.02
MSLP
1017.74 1017.93 1018.07 1018.18 1018.26 1018.32 1018.39 1018.46 1018.57 1018.71 1018.88 1019.08 1019.30 1019.50 1019.66 1019.75 1019.76 1019.66 1019.44 1019.11 1018.67 1018.15 1017.58 1016.97 1016.34 1015.72 1015.10 1014.49 1013.87 1013.23 1012.57 1011.87 1011.13 1010.36 1009.57 1008.80 1008.06 1007.40 1006.83 1006.39 1006.09 1005.92 1005.90 1006.01
1017.79 1017.97 1018.10 1018.19 1018.27 1018.34 1018.42 1018.51 1018.64 1018.80 1018.98 1019.19 1019.39 1019.57 1019.71 1019.77 1019.75 1019.61 1019.37 1019.03 1018.58 1018.06 1017.48 1016.86 1016.22 1015.56 1014.90 1014.22 1013.52 1012.79 1012.04 1011.25 1010.43 1009.61 1008.79 1008.01 1007.29 1006.66 1006.15 1005.77 1005.53 1005.42 1005.44 1005.57
1017.83 1017.98 1018.10 1018.19 1018.27 1018.36 1018.46 1018.59 1018.75 1018.94 1019.15 1019.36 1019.56 1019.73 1019.84 1019.87 1019.81 1019.64 1019.37 1018.99 1018.53 1017.99 1017.39 1016.75 1016.07 1015.37 1014.63 1013.87 1013.08 1012.25 1011.38 1010.50 1009.60 1008.71 1007.85 1007.06 1006.36 1005.78 1005.33 1005.02 1004.85 1004.82 1004.90 1005.07
1017.84 1017.98 1018.08 1018.17 1018.26 1018.37 1018.51 1018.67 1018.87 1019.10 1019.34 1019.58 1019.78 1019.94 1020.02 1020.02 1019.92 1019.71 1019.40 1018.99 1018.49 1017.93 1017.30 1016.62 1015.90 1015.13 1014.32 1013.47 1012.57 1011.63 1010.65 1009.66 1008.67 1007.70 1006.80 1005.99 1005.30 1004.75 1004.35 1004.11 1004.01 1004.04 1004.19 1004.42
1017.80 1017.92 1018.03 1018.12 1018.23 1018.37 1018.55 1018.75 1019.00 1019.27 1019.53 1019.79 1019.99 1020.14 1020.20 1020.16 1020.02 1019.78 1019.43 1018.98 1018.46 1017.86 1017.20 1016.49 1015.71 1014.89 1014.01 1013.06 1012.06 1011.01 1009.92 1008.82 1007.73 1006.69 1005.73 1004.88 1004.17 1003.63 1003.25 1003.04 1002.99 1003.08 1003.28 1003.57
1017.70 1017.82 1017.93 1018.04 1018.18 1018.35 1018.56 1018.82 1019.10 1019.40 1019.69 1019.96 1020.16 1020.29 1020.33 1020.26 1020.09 1019.80 1019.42 1018.95 1018.40 1017.78 1017.10 1016.36 1015.55 1014.68 1013.74 1012.72 1011.63 1010.49 1009.30 1008.10 1006.91 1005.78 1004.74 1003.84 1003.08 1002.51 1002.11 1001.90 1001.86 1001.96 1002.19 1002.51
1017.51 1017.64 1017.77 1017.91 1018.08 1018.30 1018.55 1018.85 1019.17 1019.50 1019.81 1020.07 1020.27 1020.38 1020.39 1020.30 1020.09 1019.78 1019.37 1018.89 1018.32 1017.70 1017.01 1016.26 1015.43 1014.54 1013.56 1012.50 1011.35 1010.14 1008.88 1007.59 1006.33 1005.11 1003.99 1003.00 1002.17 1001.53 1001.07 1000.80 1000.72 1000.79 1001.01 1001.33
1017.25 1017.40 1017.56 1017.75 1017.97 1018.23 1018.54 1018.87 1019.23 1019.57 1019.89 1020.15 1020.34 1020.42 1020.41 1020.28 1020.04 1019.71 1019.29 1018.80 1018.24 1017.62 1016.95 1016.20 1015.39 1014.50 1013.52 1012.44 1011.28 1010.04 1008.73 1007.40 1006.07 1004.79 1003.59 1002.51 1001.59 1000.84 1000.28 999.92 999.74 999.73 999.88 1000.16
1016.92 1017.11 1017.32 1017.56 1017.84 1018.16 1018.52 1018.90 1019.28 1019.65 1019.97 1020.22 1020.39 1020.45 1020.40 1020.25 1019.99 1019.65 1019.22 1018.73 1018.19 1017.59 1016.94 1016.23 1015.45 1014.59 1013.64 1012.59 1011.44 1010.21 1008.91 1007.57 1006.21 1004.89 1003.63 1002.48 1001.46 1000.60 999.92 999.42 999.11 998.98 999.01 999.20
1016.55 1016.79 1017.06 1017.37 1017.72 1018.10 1018.52 1018.95 1019.36 1019.74 1020.07 1020.31 1020.46 1020.50 1020.42 1020.25 1019.98 1019.62 1019.20 1018.72 1018.20 1017.63 1017.02 1016.35 1015.62 1014.81 1013.92 1012.92 1011.83 1010.65 1009.40 1008.09 1006.76 1005.44 1004.16 1002.96 1001.87 1000.91 1000.11 999.47 999.01 998.72 998.61 998.67
1016.17 1016.46 1016.80 1017.18 1017.60 1018.06 1018.53 1019.01 1019.46 1019.86 1020.19 1020.43 1020.56 1020.58 1020.50 1020.31 1020.03 1019.68 1019.27 1018.81 1018.31 1017.77 1017.20 1016.58 1015.91 1015.16 1014.34 1013.42 1012.42 1011.32 1010.16 1008.93 1007.67 1006.41 1005.16 1003.96 1002.85 1001.83 1000.94 1000.18 999.57 999.13 998.86 998.75
1015.81 1016.16 1016.56 1017.01 1017.50 1018.01 1018.54 1019.06 1019.54 1019.96 1020.30 1020.55 1020.68 1020.70 1020.62 1020.43 1020.17 1019.83 1019.43 1019.00 1018.53 1018.03 1017.50 1016.92 1016.30 1015.62 1014.87 1014.05 1013.14 1012.16 1011.11 1010.01 1008.87 1007.71 1006.56 1005.43 1004.34 1003.32 1002.39 1001.56 1000.86 1000.28 999.86 999.59
1015.50 1015.89 1016.33 1016.83 1017.37 1017.94 1018.51 1019.06 1019.57 1020.01 1020.37 1020.63 1020.78 1020.81 1020.75 1020.59 1020.35 1020.04 1019.68 1019.28 1018.85 1018.38 1017.89 1017.35 1016.78 1016.16 1015.48 1014.74 1013.94 1013.08 1012.16 1011.21 1010.23 1009.22 1008.21 1007.20 1006.22 1005.26 1004.36 1003.52 1002.76 1002.11 1001.57 1001.17
1015.24 1015.65 1016.12 1016.65 1017.22 1017.81 1018.40 1018.98 1019.50 1019.96 1020.34 1020.62 1020.79 1020.87 1020.84 1020.72 1020.53 1020.28 1019.97 1019.62 1019.23 1018.80 1018.34 1017.85 1017.31 1016.73 1016.11 1015.45 1014.74 1014.00 1013.22 1012.43 1011.61 1010.79 1009.95 1009.12 1008.28 1007.46 1006.65 1005.87 1005.13 1004.45 1003.85 1003.36
1015.05 1015.46 1015.93 1016.46 1017.03 1017.62 1018.22 1018.79 1019.32 1019.79 1020.18 1020.49 1020.70 1020.82 1020.85 1020.80 1020.68 1020.49 1020.25 1019.96 1019.63 1019.25 1018.83 1018.37 1017.86 1017.32 1016.74 1016.14 1015.51 1014.86 1014.21 1013.56 1012.92 1012.28 1011.64 1010.99 1010.35 1009.70 1009.03 1008.37 1007.71 1007.07 1006.47 1005.94
1014.93 1015.31 1015.76 1016.27 1016.81 1017.38 1017.96 1018.51 1019.04 1019.51 1019.91 1020.24 1020.49 1020.66 1020.76 1020.79 1020.75 1020.65 1020.49 1020.28 1020.01 1019.69 1019.31 1018.89 1018.41 1017.90 1017.35 1016.79 1016.21 1015.64 1015.09 1014.56 1014.06 1013.59 1013.13 1012.68 1012.23 1011.76 1011.27 1010.75 1010.22 1009.67 1009.12 1008.61
1014.85 1015.20 1015.62 1016.09 1016.60 1017.13 1017.67 1018.20 1018.70 1019.16 1019.56 1019.91 1020.20 1020.42 1020.59 1020.69 1020.74 1020.73 1020.66 1020.53 1020.34 1020.09 1019.77 1019.38 1018.94 1018.45 1017.93 1017.39 1016.84 1016.32 1015.84 1015.39 1015.00 1014.65 1014.34 1014.05 1013.78 1013.48 1013.17 1012.81 1012.42 1011.99 1011.53 1011.07
1014.81 1015.13 1015.52 1015.95 1016.42 1016.91 1017.41 1017.90 1018.38 1018.82 1019.22 1019.57 1019.89 1020.15 1020.37 1020.54 1020.67 1020.74 1020.76 1020.72 1020.61 1020.42 1020.16 1019.83 1019.42 1018.96 1018.46 1017.94 1017.42 1016.92 1016.46 1016.07 1015.73 1015.47 1015.25 1015.08 1014.93 1014.78 1014.60 1014.39 1014.13 1013.82 1013.47 1013.10
1014.78 1015.08 1015.44 1015.85 1016.29 1016.75 1017.22 1017.68 1018.12 1018.54 1018.93 1019.28 1019.60 1019.89 1020.15 1020.37 1020.55 1020.70 1020.79 1020.82 1020.79 1020.67 1020.48 1020.20 1019.85 1019.42 1018.95 1018.44 1017.93 1017.44 1016.99 1016.61 1016.29 1016.05 1015.88 1015.77 1015.69 1015.62 1015.54 1015.43 1015.28 1015.08 1014.83 1014.54
1014.71 1015.02 1015.38 1015.78 1016.20 1016.65 1017.10 1017.54 1017.96 1018.36 1018.73 1019.07 1019.39 1019.67 1019.94 1020.19 1020.41 1020.59 1020.74 1020.83 1020.87 1020.82 1020.69 1020.48 1020.18 1019.81 1019.37 1018.89 1018.40 1017.91 1017.46 1017.06 1016.74 1016.48 1016.31 1016.19 1016.13 1016.09 1016.05 1016.00 1015.92 1015.79 1015.61 1015.40
1014.58 1014.90 1015.27 1015.68 1016.11 1016.56 1017.01 1017.44 1017.85 1018.23 1018.59 1018.91 1019.21 1019.48 1019.74 1019.98 1020.21 1020.42 1020.59 1020.73 1020.81 1020.83 1020.77 1020.63 1020.39 1020.08 1019.70 1019.27 1018.80 1018.32 1017.87 1017.46 1017.10 1016.82 1016.60 1016.46 1016.36 1016.31 1016.27 1016.23 1016.17 1016.07 1015.95 1015.79
1014.35 1014.69 1015.07 1015.50 1015.95 1016.42 1016.87 1017.31 1017.71 1018.09 1018.42 1018.73 1019.00 1019.25 1019.49 1019.71 1019.93 1020.13 1020.32 1020.48 1020.60 1020.67 1020.67 1020.60 1020.45 1020.21 1019.90 1019.52 1019.10 1018.66 1018.22 1017.80 1017.42 1017.10 1016.83 1016.64 1016.50 1016.40 1016.32 1016.26 1016.19 1016.11 1016.00 1015.87
1014.01 1014.35 1014.75 1015.19 1015.65 1016.13 1016.59 1017.04 1017.45 1017.82 1018.14 1018.43 1018.68 1018.91 1019.11 1019.31 1019.50 1019.69 1019.88 1020.05 1020.20 1020.31 1020.38 1020.38 1020.30 1020.15 1019.92 1019.63 1019.27 1018.88 1018.47 1018.06 1017.68 1017.33 1017.03 1016.79 1016.60 1016.45 1016.33 1016.24 1016.15 1016.05 1015.95 1015.83
1013.58 1013.89 1014.27 1014.70 1015.16 1015.64 1016.11 1016.56 1016.97 1017.34 1017.66 1017.94 1018.17 1018.38 1018.56 1018.74 1018.91 1019.09 1019.27 1019.45 1019.62 1019.77 1019.88 1019.95 1019.95 1019.89 1019.75 1019.54 1019.27 1018.94 1018.59 1018.22 1017.85 1017.50 1017.19 1016.92 1016.69 1016.51 1016.36 1016.23 1016.12 1016.02 1015.92 1015.81
1013.10 1013.36 1013.69 1014.07 1014.51 1014.95 1015.41 1015.85 1016.25 1016.62 1016.94 1017.21 1017.44 1017.65 1017.82 1017.99 1018.15 1018.33 1018.51 1018.69 1018.88 1019.06 1019.22 1019.34 1019.42 1019.43 1019.38 1019.25 1019.06 1018.82 1018.53 1018.22 1017.89 1017.57 1017.27 1017.00 1016.77 1016.57 1016.41 1016.27 1016.16 1016.06 1015.96 1015.87
1012.66 1012.82 1013.06 1013.37 1013.73 1014.13 1014.54 1014.95 1015.34 1015.70 1016.02 1016.30 1016.55 1016.76 1016.95 1017.12 1017.30 1017.48 1017.67 1017.87 1018.07 1018.27 1018.46 1018.63 1018.75 1018.83 1018.84 1018.79 1018.68 1018.51 1018.29 1018.04 1017.77 1017.50 1017.24 1016.99 1016.78 1016.60 1016.45 1016.32 1016.22 1016.14 1016.06 1015.99
1012.35 1012.39 1012.51 1012.71 1012.97 1013.28 1013.63 1013.99 1014.35 1014.70 1015.02 1015.32 1015.59 1015.83 1016.05 1016.26 1016.46 1016.66 1016.87 1017.08 1017.30 1017.51 1017.72 1017.90 1018.05 1018.15 1018.21 1018.21 1018.15 1018.04 1017.89 1017.70 1017.49 1017.27 1017.06 1016.86 1016.68 1016.54 1016.42 1016.32 1016.25 1016.20 1016.15 1016.11
Thickness
5696 5704 5707 5705 5706 5708 5709 5713 5713 5720 5725 5730 5733 5735 5737 5739 5739 5739 5738 5738 5737 5736 5735 5735 5734 5733 5732 5730 5728 5726 5723 5721 5718 5715 5714 5712 5710 5709 5708 5707 5706 5704 5703 5701
5683 5694 5697 5696 5703 5706 5706 5709 5712 5716 5717 5727 5730 5731 5731 5732 5731 5730 5731 5732 5732 5731 5730 5729 5728 5727 5725 5723 5722 5720 5717 5715 5714 5712 5710 5707 5706 5704 5703 5702 5701 5700 5698 5697
5675 5686 5686 5684 5698 5700 5701 5705 5706 5705 5711 5717 5717 5718 5720 5724 5725 5725 5726 5726 5725 5725 5724 5724 5724 5723 5720 5718 5716 5714 5712 5710 5709 5708 5706 5704 5703 5700 5698 5696 5695 5694 5693 5693
5672 5670 5662 5688 5700 5701 5698 5699 5704 5705 5708 5709 5709 5712 5716 5717 5718 5719 5720 5720 5719 5719 5719 5720 5720 5718 5716 5714 5711 5709 5707 5706 5705 5704 5701 5699 5697 5695 5693 5692 5690 5689 5689 5689
5663 5662 5669 5678 5687 5689 5686 5687 5697 5697 5699 5701 5705 5708 5709 5710 5712 5713 5714 5715 5714 5714 5715 5714 5713 5712 5710 5708 5706 5704 5702 5701 5700 5699 5696 5694 5692 5690 5688 5687 5686 5686 5686 5685
5656 5654 5656 5671 5682 5687 5683 5676 5689 5691 5690 5692 5695 5695 5700 5703 5705 5707 5708 5709 5708 5708 5709 5707 5707 5706 5703 5701 5700 5699 5698 5696 5695 5693 5691 5689 5688 5686 5685 5684 5683 5683 5682 5681
5648 5650 5660 5668 5674 5675 5664 5671 5680 5683 5684 5685 5686 5688 5691 5695 5696 5698 5700 5701 5702 5701 5701 5700 5700 5699 5696 5695 5694 5694 5693 5691 5689 5688 5686 5685 5684 5683 5682 5681 5680 5679 5678 5677
5645 5644 5648 5661 5664 5660 5663 5670 5673 5675 5677 5678 5680 5681 5683 5686 5687 5690 5692 5693 5694 5693 5693 5693 5693 5692 5691 5689 5690 5688 5687 5685 5683 5682 5682 5682 5679 5678 5678 5677 5676 5675 5674 5673
5641 5643 5649 5654 5655 5657 5660 5661 5664 5667 5670 5671 5672 5674 5676 5678 5679 5681 5683 5685 5685 5685 5685 5685 5686 5686 5685 5684 5684 5683 5681 5679 5678 5677 5677 5676 5676 5675 5674 5674 5675 5674 5673 5671
5632 5639 5642 5645 5647 5650 5653 5655 5658 5661 5663 5665 5665 5667 5669 5670 5672 5673 5675 5676 5677 5677 5677 5677 5679 5679 5679 5679 5679 5677 5675 5674 5673 5672 5673 5672 5672 5673 5673 5672 5671 5670 5669 5668
5624 5630 5634 5638 5640 5642 5644 5648 5651 5654 5657 5659 5660 5661 5662 5663 5664 5666 5668 5669 5669 5669 5670 5671 5672 5672 5673 5673 5673 5672 5671 5670 5669 5669 5669 5667 5667 5666 5667 5666 5665 5663 5664 5664
5619 5624 5627 5630 5634 5637 5638 5641 5644 5647 5649 5653 5655 5655 5656 5657 5658 5660 5660 5661 5662 5662 5663 5663 5664 5665 5667 5667 5667 5666 5665 5665 5666 5665 5664 5664 5663 5660 5655 5656 5653 5652 5651 5651
5615 5620 5623 5626 5629 5632 5634 5637 5640 5642 5644 5646 5648 5650 5650 5651 5652 5653 5654 5654 5655 5656 5657 5657 5658 5659 5660 5661 5661 5661 5660 5661 5661 5661 5660 5660 5659 5657 5654 5649 5645 5644 5642 5641
5611 5614 5616 5620 5623 5627 5630 5633 5636 5637 5639 5641 5642 5644 5644 5645 5646 5646 5647 5648 5649 5650 5651 5651 5653 5654 5655 5656 5656 5656 5657 5656 5655 5655 5656 5655 5654 5654 5653 5650 5647 5644 5638 5634
5607 5611 5613 5616 5619 5622 5625 5628 5630 5632 5633 5634 5637 5638 5638 5639 5639 5640 5641 5642 5643 5644 5646 5647 5647 5648 5649 5650 5650 5650 5651 5651 5650 5651 5651 5651 5650 5649 5648 5646 5644 5642 5639 5632
5603 5607 5609 5611 5614 5617 5620 5622 5625 5626 5628 5629 5630 5631 5633 5633 5633 5634 5635 5636 5637 5638 5639 5641 5641 5642 5643 5644 5643 5644 5644 5642 5643 5646 5647 5646 5644 5643 5641 5639 5637 5636 5634 5630
5597 5600 5603 5605 5608 5611 5613 5616 5618 5621 5622 5623 5624 5626 5627 5627 5627 5628 5629 5631 5632 5633 5634 5635 5636 5637 5637 5637 5638 5639 5639 5638 5635 5639 5639 5639 5637 5636 5634 5632 5630 5628 5627 5623
5595 5599 5601 5602 5603 5605 5607 5610 5613 5614 5616 5618 5620 5621 5622 5622 5623 5623 5624 5625 5626 5627 5628 5629 5629 5631 5632 5632 5632 5634 5634 5634 5633 5633 5632 5631 5629 5628 5627 5625 5623 5621 5619 5616
5592 5595 5597 5598 5599 5600 5603 5605 5607 5608 5610 5612 5614 5615 5616 5617 5617 5618 5619 5619 5620 5621 5621 5622 5620 5623 5625 5625 5626 5627 5628 5628 5627 5626 5625 5621 5621 5620 5619 5617 5616 5614 5612 5610
5588 5591 5593 5594 5596 5597 5597 5599 5601 5602 5604 5606 5607 5608 5609 5610 5611 5612 5612 5613 5613 5615 5615 5615 5616 5618 5619 5620 5619 5622 5622 5622 5621 5620 5618 5616 5614 5613 5612 5611 5609 5607 5605 5603
5584 5587 5589 5590 5591 5592 5593 5595 5595 5596 5598 5600 5601 5601 5602 5603 5604 5604 5605 5606 5606 5606 5608 5607 5610 5612 5613 5614 5612 5617 5617 5616 5615 5614 5612 5610 5609 5607 5605 5604 5601 5599 5598 5596
5580 5582 5584 5586 5586 5587 5589 5590 5590 5591 5592 5594 5595 5595 5595 5596 5597 5597 5598 5599 5600 5597 5600 5603 5604 5603 5605 5606 5609 5611 5610 5609 5608 5607 5605 5603 5602 5600 5599 5597 5595 5593 5591 5589
5575 5577 5579 5581 5581 5582 5582 5583 5584 5585 5586 5587 5588 5588 5588 5589 5590 5591 5592 5592 5593 5590 5593 5596 5594 5594 5594 5600 5603 5603 5603 5601 5600 5599 5598 5596 5595 5593 5592 5590 5588 5586 5583 5581
5570 5572 5573 5575 5576 5576 5575 5576 5577 5578 5579 5580 5581 5581 5582 5583 5584 5586 5586 5584 5583 5583 5587 5586 5585 5586 5587 5594 5595 5596 5595 5594 5593 5592 5591 5589 5588 5586 5584 5582 5579 5577 5575 5572
5565 5566 5567 5568 5568 5569 5570 5570 5571 5572 5573 5574 5575 5575 5577 5578 5578 5579 5579 5579 5577 5577 5581 5580 5579 5579 5584 5587 5589 5589 5588 5587 5586 5585 5583 5581 5579 5577 5575 5572 5570 5567 5565 5563
5559 5560 5561 5561 5562 5563 5565 5566 5568 5568 5569 5569 5570 5570 5570 5571 5571 5571 5572 5573 5573 5571 5574 5576 5577 5576 5579 5580 5580 5579 5579 5578 5577 5576 5574 5572 5569 5567 5564 5562 5559 5557 5555 5553
5554 5555 5555 5556 5557 5559 5560 5560 5561 5562 5563 5563 5563 5564 5564 5564 5564 5565 5566 5567 5567 5568 5569 5571 5572 5572 5572 5572 5571 5570 5569 5568 5567 5565 5563 5561 5559 5557 5555 5552 5549 5546 5544 5542